Location: Dal�� Lhota
(48.7500°N, 14.0167°E)
Time: 02:04:10
(UTC+00:00)

CZ-4C R/B - Pass Details

Date: 24 September 2020
Orbit: 626 x 1376 km, 63.4° (Epoch: 29 October)

Event Time Altitude Azimuth Distance (km) Brightness Sun altitude
Exits shadow 22:45:18 25° 4° (N) 1,822 4.3 -42.1°
Drops below altitude 10° 22:49:20 10° 38° (NE) 2,845 5.3 -42.2°
Sets 22:52:42 0° 49° (NE) 3,940 6.1 -42.2°
